• In Belgium
  • List of Countries
  • For 7 days
  • Water Temperature
  • Satellite Maps
  • Weather Map
  • Weather Widgets
  • user-avatar
    Login

    Hourly Weather Burdur

    Today, 21 January, Sunday

    Time Temperature Precipitation Wind Pressure Humidity
    00:00 +1°C° 0 mm 3 mps 676 mmHg 89%
    01:00 +2°C° 0 mm 2 mps 676 mmHg 91%
    02:00 +2°C° 0 mm 2 mps 676 mmHg 93%
    03:00 +2°C° 0 mm 2 mps 676 mmHg 93%
    04:00 +2°C° 0 mm 2 mps 676 mmHg 93%
    05:00 +2°C° 0 mm 2 mps 676 mmHg 93%
    06:00 +2°C° 0 mm 2 mps 676 mmHg 93%
    07:00 +3°C° 0 mm 2 mps 676 mmHg 93%
    08:00 +3°C° 0 mm 2 mps 676 mmHg 91%
    09:00 +3°C° 0 mm 3 mps 676 mmHg 87%
    10:00 +5°C° 0 mm 3 mps 675 mmHg 84%
    11:00 +7°C° 0 mm 3 mps 675 mmHg 80%
    12:00 +7°C° 0 mm 3 mps 674 mmHg 79%
    13:00 +6°C° 0 mm 4 mps 674 mmHg 79%
    14:00 +6°C° 0 mm 5 mps 673 mmHg 82%
    15:00 +6°C° 0.1 mm 5 mps 673 mmHg 84%
    16:00 +5°C° 0.1 mm 4 mps 672 mmHg 86%
    17:00 +5°C° 0.1 mm 3 mps 672 mmHg 89%
    18:00 +5°C° 0.1 mm 3 mps 672 mmHg 90%
    19:00 +5°C° 0.1 mm 3 mps 671 mmHg 91%
    20:00 +4°C° 0.1 mm 4 mps 671 mmHg 93%
    21:00 +4°C° 0.1 mm 4 mps 671 mmHg 93%
    22:00 +4°C° 0.1 mm 4 mps 670 mmHg 93%
    23:00 +4°C° 0.1 mm 4 mps 670 mmHg 93%

    Tomorrow, 22 January, Monday

    Time Temperature Precipitation Wind Pressure Humidity
    00:00 +4°C° 1 mm 3 mps 669 mmHg 94%
    01:00 +4°C° 1 mm 3 mps 668 mmHg 94%
    02:00 +4°C° 1 mm 2 mps 667 mmHg 94%
    03:00 +4°C° 2.2 mm 2 mps 667 mmHg 94%
    04:00 +4°C° 2.2 mm 2 mps 666 mmHg 93%
    05:00 +4°C° 2.2 mm 2 mps 665 mmHg 92%
    06:00 +4°C° 2.4 mm 2 mps 665 mmHg 92%
    07:00 +4°C° 2.4 mm 2 mps 665 mmHg 91%
    08:00 +4°C° 2.4 mm 2 mps 665 mmHg 91%
    09:00 +4°C° 0.9 mm 2 mps 665 mmHg 88%
    10:00 +5°C° 0.9 mm 2 mps 665 mmHg 85%
    11:00 +6°C° 0.9 mm 2 mps 665 mmHg 82%
    12:00 +6°C° 0.7 mm 2 mps 665 mmHg 81%
    13:00 +6°C° 0.7 mm 2 mps 664 mmHg 80%
    14:00 +7°C° 0.7 mm 2 mps 664 mmHg 79%
    15:00 +6°C° 0.6 mm 2 mps 664 mmHg 82%
    16:00 +6°C° 0.6 mm 2 mps 664 mmHg 85%
    17:00 +6°C° 0.6 mm 2 mps 664 mmHg 87%
    18:00 +5°C° 1.4 mm 2 mps 664 mmHg 89%
    19:00 +5°C° 1.4 mm 2 mps 664 mmHg 90%
    20:00 +6°C° 1.4 mm 1 mps 664 mmHg 92%
    21:00 +5°C° 2 mm 2 mps 664 mmHg 92%
    22:00 +5°C° 2 mm 2 mps 664 mmHg 92%
    23:00 +5°C° 2 mm 2 mps 665 mmHg 93%

    Day after tomorrow, 23 January, Tuesday

    Time Temperature Precipitation Wind Pressure Humidity
    00:00 +3°C° 1.8 mm 3 mps 665 mmHg 92%
    01:00 +3°C° 1.8 mm 3 mps 666 mmHg 92%
    02:00 +3°C° 1.8 mm 4 mps 666 mmHg 91%
    03:00 +2°C° 0.5 mm 3 mps 667 mmHg 91%
    04:00 +2°C° 0.5 mm 3 mps 667 mmHg 90%
    05:00 +1°C° 0.5 mm 3 mps 667 mmHg 90%
    06:00 +1°C° 0.1 mm 3 mps 668 mmHg 89%
    07:00 +1°C° 0.1 mm 3 mps 669 mmHg 88%
    08:00 +1°C° 0.1 mm 3 mps 670 mmHg 87%
    09:00 +1°C° 0 mm 3 mps 671 mmHg 83%
    10:00 +2°C° 0 mm 3 mps 671 mmHg 79%
    11:00 +2°C° 0 mm 3 mps 672 mmHg 75%
    12:00 +2°C° 0 mm 3 mps 672 mmHg 74%
    13:00 +3°C° 0 mm 3 mps 672 mmHg 72%
    14:00 +3°C° 0 mm 3 mps 672 mmHg 70%
    15:00 +2°C° 0 mm 3 mps 672 mmHg 71%
    16:00 +2°C° 0 mm 3 mps 672 mmHg 72%
    17:00 +1°C° 0 mm 3 mps 672 mmHg 73%
    18:00 0°C° 0 mm 3 mps 673 mmHg 75%
    19:00 -1°C° 0 mm 3 mps 673 mmHg 77%
    20:00 -1°C° 0 mm 3 mps 674 mmHg 79%
    21:00 -2°C° 0 mm 3 mps 674 mmHg 80%
    22:00 -2°C° 0 mm 3 mps 674 mmHg 80%
    23:00 -2°C° 0 mm 3 mps 674 mmHg 81%

    24 January, Wednesday

    Time Temperature Precipitation Wind Pressure Humidity
    00:00 -2°C° 0 mm 3 mps 675 mmHg 80%
    01:00 -4°C° 0 mm 3 mps 675 mmHg 80%
    02:00 -4°C° 0 mm 3 mps 675 mmHg 80%
    03:00 -4°C° 0 mm 3 mps 675 mmHg 79%
    04:00 -4°C° 0 mm 3 mps 675 mmHg 79%
    05:00 -4°C° 0 mm 3 mps 675 mmHg 79%
    06:00 -4°C° 0 mm 3 mps 675 mmHg 78%
    07:00 -4°C° 0 mm 4 mps 676 mmHg 78%
    08:00 -3°C° 0 mm 4 mps 676 mmHg 77%
    09:00 -3°C° 0 mm 4 mps 676 mmHg 74%
    10:00 -2°C° 0 mm 4 mps 676 mmHg 70%
    11:00 -1°C° 0 mm 4 mps 677 mmHg 67%
    12:00 -1°C° 0.1 mm 4 mps 676 mmHg 67%
    13:00 -1°C° 0.1 mm 4 mps 676 mmHg 67%
    14:00 -1°C° 0.1 mm 4 mps 676 mmHg 67%
    15:00 -1°C° 0 mm 4 mps 676 mmHg 68%
    16:00 -2°C° 0 mm 4 mps 676 mmHg 69%
    17:00 -2°C° 0 mm 4 mps 676 mmHg 71%
    18:00 -3°C° 0 mm 4 mps 676 mmHg 71%
    19:00 -3°C° 0 mm 4 mps 677 mmHg 72%
    20:00 -4°C° 0 mm 4 mps 677 mmHg 73%
    21:00 -4°C° 0 mm 4 mps 677 mmHg 73%
    22:00 -4°C° 0 mm 4 mps 677 mmHg 73%
    23:00 -5°C° 0 mm 4 mps 677 mmHg 73%

    25 January, Thursday

    Time Temperature Precipitation Wind Pressure Humidity
    00:00 -5°C° 0 mm 4 mps 677 mmHg 73%
    01:00 -5°C° 0 mm 3 mps 677 mmHg 73%
    02:00 -6°C° 0 mm 3 mps 676 mmHg 73%
    03:00 -7°C° 0 mm 4 mps 676 mmHg 73%
    04:00 -7°C° 0 mm 4 mps 676 mmHg 73%
    05:00 -8°C° 0 mm 4 mps 676 mmHg 72%
    06:00 -8°C° 0 mm 4 mps 676 mmHg 71%
    07:00 -8°C° 0 mm 4 mps 676 mmHg 70%
    08:00 -8°C° 0 mm 4 mps 676 mmHg 69%
    09:00 -7°C° 0 mm 4 mps 676 mmHg 64%
    10:00 -7°C° 0 mm 5 mps 676 mmHg 58%
    11:00 -6°C° 0 mm 5 mps 676 mmHg 53%
    12:00 -5°C° 0 mm 5 mps 675 mmHg 51%
    13:00 -5°C° 0 mm 5 mps 675 mmHg 50%
    14:00 -4°C° 0 mm 5 mps 674 mmHg 49%
    15:00 -5°C° 0 mm 5 mps 674 mmHg 52%
    16:00 -6°C° 0 mm 5 mps 674 mmHg 55%
    17:00 -5°C° 0 mm 4 mps 674 mmHg 59%
    18:00 -7°C° 0 mm 4 mps 674 mmHg 61%
    19:00 -7°C° 0 mm 4 mps 674 mmHg 64%
    20:00 -7°C° 0 mm 3 mps 674 mmHg 66%
    21:00 -7°C° 0 mm 3 mps 674 mmHg 68%
    22:00 -7°C° 0 mm 3 mps 674 mmHg 69%
    23:00 -7°C° 0 mm 3 mps 674 mmHg 71%

    26 January, Friday

    Time Temperature Precipitation Wind Pressure Humidity
    00:00 -7°C° 0 mm 3 mps 674 mmHg 72%
    01:00 -7°C° 0 mm 3 mps 674 mmHg 73%
    02:00 -7°C° 0 mm 3 mps 674 mmHg 74%
    03:00 -7°C° 0 mm 3 mps 674 mmHg 74%
    04:00 -7°C° 0 mm 3 mps 673 mmHg 75%
    05:00 -7°C° 0 mm 3 mps 673 mmHg 75%
    06:00 -7°C° 0 mm 3 mps 674 mmHg 75%
    07:00 -7°C° 0 mm 3 mps 674 mmHg 75%
    08:00 -7°C° 0 mm 3 mps 674 mmHg 75%
    09:00 -5°C° 0 mm 3 mps 675 mmHg 71%
    10:00 -4°C° 0 mm 3 mps 675 mmHg 67%
    11:00 -3°C° 0 mm 4 mps 675 mmHg 63%
    12:00 -2°C° 0 mm 4 mps 675 mmHg 62%
    13:00 -1°C° 0 mm 4 mps 675 mmHg 61%
    14:00 0°C° 0 mm 4 mps 675 mmHg 60%
    15:00 0°C° 0 mm 3 mps 675 mmHg 64%
    16:00 -1°C° 0 mm 3 mps 675 mmHg 68%
    17:00 -2°C° 0 mm 2 mps 676 mmHg 72%
    18:00 -2°C° 0 mm 2 mps 676 mmHg 74%
    19:00 -3°C° 0 mm 2 mps 676 mmHg 76%
    20:00 -3°C° 0 mm 2 mps 677 mmHg 78%
    21:00 -4°C° 0 mm 2 mps 677 mmHg 78%
    22:00 -4°C° 0 mm 2 mps 677 mmHg 79%
    23:00 -4°C° 0 mm 2 mps 677 mmHg 79%
    Show more